Location: Caoba
(9.7667°N, 67.4833°W)
Time: 20:42:15
(UTC+00:00)

GOES 2 Rocket - Pass Details

Date: 07 December 2024
Orbit: 569 x 1662 km, 28.4° (Epoch: 14 January)

Event Time Altitude Azimuth Distance (km) Brightness Sun altitude
Exits shadow 10:08:20 - 319° (NW) 2,321 5.5 -6.8°
Reaches altitude 10° 10:09:26 10° 326° (NW) 1,951 5.1 -6.5°
Maximum altitude 10:13:18 28° 26° (NNE) 1,245 4.7 -5.6°
Drops below altitude 10° 10:17:54 10° 86° (E) 2,332 7.2 -4.6°
Sets 10:21:01 0° 97° (E) 3,451 8.8 -3.9°
